COSMOS 1275 DEB, 15542

Orbit data source: Space-Track

COSMOS 1275 DEB, 15542 is space debris in LEO originally from a launch on Thu, 04 Jun 1981 UTC launched from the Plesetsk Missile And Space Complex (PKMTR). Debris objects in space refer to the collection of defunct objects orbiting the Earth. Examples of debris include non-operational satellites, rocket bodies, and fragments generated from explosions, collisions, or faulty payload assembly.

Loading next visibility...
Identifier
15542, 1981-053KA
Orbit
LEO
Country
Flag of CISCIS
Related business
Manufacturer
Unknown
Mission
Spacecraft
Bus & Motor
Unknown
Mass
Unknown
Launch date (UTC)
1981-06-04 (45 years ago)
Launch vehicle
Unknown
Launch site
Plesetsk Missile And Space Complex (PKMTR)
Object type
Payload
Rocket body
Debris
Shape & HBR
Unknown shape, 0.1 m
Radar Cross Section
Medium (>0.1 m² and <1 m²)

Expand to show TLE details & history
Last TLE update: 10 hours ago

TLE from 10 hours ago
0 COSMOS 1275 DEB
1 15542U 81053KA  26255.03003562  .00000551  00000-0  48673-3 0  9995
2 15542  83.0060   0.0640 0072149 110.8135  14.3532 13.82220619238744
Epoch: 2026-09-12T00:43Z
TLE epoch observation values (Epoch: 2026-09-12T00:43:15.077Z)
Latitude
54.12901°
Longitude
168.49031°
Altitude
913.678 km
Speed
7.426 km/s
True Right ascension
11h 21m 23s
True Declination
53° 58' 09"
Sunlit
Object was in daylight at epoch
Visualization orbit readout
Latitude
Unknown
Longitude
Unknown
Altitude
Unknown
Speed
Unknown
Apparent Right ascension
Unknown
Apparent Declination
Unknown
Sunlit
N/A
Visualization observer readout
Local Sidereal Time
02:53:47
Azimuth
Unknown
Elevation
Unknown
Doppler factor
Unknown
Orbital elements
Apogee altitude
1,006.052 km
Perigee altitude
900.263 km
Semi-major axis
7,331.294 km
Eccentricity
0.00721
Inclination
83.006°
RAAN
0.064°
Arg. of periapsis
110.8135°
True anomaly
14.55996°
Mean anomaly
14.3532°
Eccentric anomaly
14.4564°
Mean motion
3.45758 °/min
Orbital period
104.12 mins
BSTAR
0.00048673
Loading maneuver chart data...
Computing Atmospheric mass density...
Loading historical data...
Loading historical data...
Loading historical data...
Loading historical data...
Loading historical data...
Loading historical data...
Loading historical data...

Documentation

Showing up to 5 results
|